Date_Time,Julian_Date,Latitude,Longitude,Instrument_Depth,U,V,Speed,Direction
(yyyy-mm-dd hh:mn:ss UTC),(JD),(+ deg. North),(+ deg. East),(m),(cm/s),(cm/s),(cm/s),(deg True)
1981-06-24 13:30:00 UTC,2444780.062500,29.7139,-93.4733,0049,-8.34,3.37,9.0000,292.0000
1981-06-24 14:00:00 UTC,2444780.083333,29.7139,-93.4733,0049,-7.00,0.24,7.0000,272.0000
1981-06-24 14:30:00 UTC,2444780.104167,29.7139,-93.4733,0049,-6.82,-1.57,7.0000,257.0000
1981-06-24 15:00:00 UTC,2444780.125000,29.7139,-93.4733,0049,-5.39,-2.63,6.0000,244.0000
1981-06-24 15:30:00 UTC,2444780.145833,29.7139,-93.4733,0049,-3.61,-4.79,6.0000,217.0000
1981-06-24 16:00:00 UTC,2444780.166667,29.7139,-93.4733,0049,-2.47,-7.61,8.0000,198.0000
1981-06-24 16:30:00 UTC,2444780.187500,29.7139,-93.4733,0049,-1.34,-10.92,11.0000,187.0000
1981-06-24 17:00:00 UTC,2444780.208333,29.7139,-93.4733,0049,0.73,-13.98,14.0000,177.0000
1981-06-24 17:30:00 UTC,2444780.229167,29.7139,-93.4733,0049,-0.30,-17.00,17.0000,181.0000
1981-06-24 18:00:00 UTC,2444780.250000,29.7139,-93.4733,0049,-4.40,-16.42,17.0000,195.0000
1981-06-24 18:30:00 UTC,2444780.270833,29.7139,-93.4733,0049,-9.01,-14.42,17.0000,212.0000
1981-06-24 19:00:00 UTC,2444780.291667,29.7139,-93.4733,0049,-12.28,-13.16,18.0000,223.0000
1981-06-24 19:30:00 UTC,2444780.312500,29.7139,-93.4733,0049,-11.51,-11.11,16.0000,226.0000
1981-06-24 20:00:00 UTC,2444780.333333,29.7139,-93.4733,0049,-9.81,-8.53,13.0000,229.0000
1981-06-24 20:30:00 UTC,2444780.354167,29.7139,-93.4733,0049,-7.55,-6.56,10.0000,229.0000
1981-06-24 21:00:00 UTC,2444780.375000,29.7139,-93.4733,0049,-5.04,-4.86,7.0000,226.0000
1981-06-24 21:30:00 UTC,2444780.395833,29.7139,-93.4733,0049,-4.60,-3.86,6.0000,230.0000
1981-06-24 22:00:00 UTC,2444780.416667,29.7139,-93.4733,0049,-5.25,-2.91,6.0000,241.0000
1981-06-24 22:30:00 UTC,2444780.437500,29.7139,-93.4733,0049,-5.74,-1.75,6.0000,253.0000
1981-06-24 23:00:00 UTC,2444780.458333,29.7139,-93.4733,0049,-4.87,-1.12,5.0000,257.0000
1981-06-24 23:30:00 UTC,2444780.479167,29.7139,-93.4733,0049,-2.26,-1.97,3.0000,229.0000
1981-06-25 00:00:00 UTC,2444780.500000,29.7139,-93.4733,0049,0.45,-1.95,2.0000,167.0000
1981-06-25 00:30:00 UTC,2444780.520833,29.7139,-93.4733,0049,0.91,-0.42,1.0000,115.0000
1981-06-25 01:00:00 UTC,2444780.541667,29.7139,-93.4733,0049,1.89,-0.65,2.0000,109.0000
1981-06-25 01:30:00 UTC,2444780.562500,29.7139,-93.4733,0049,0.58,-1.91,2.0000,163.0000
1981-06-25 02:00:00 UTC,2444780.583333,29.7139,-93.4733,0049,-1.12,-1.66,2.0000,214.0000
1981-06-25 02:30:00 UTC,2444780.604167,29.7139,-93.4733,0049,-2.08,-2.16,3.0000,224.0000
1981-06-25 03:00:00 UTC,2444780.625000,29.7139,-93.4733,0049,-3.61,-4.79,6.0000,217.0000
1981-06-25 03:30:00 UTC,2444780.645833,29.7139,-93.4733,0049,-3.09,-5.14,6.0000,211.0000
1981-06-25 04:00:00 UTC,2444780.666667,29.7139,-93.4733,0049,-2.82,-5.30,6.0000,208.0000
1981-06-25 04:30:00 UTC,2444780.687500,29.7139,-93.4733,0049,-3.61,-6.00,7.0000,211.0000
1981-06-25 05:00:00 UTC,2444780.708333,29.7139,-93.4733,0049,-4.77,-5.12,7.0000,223.0000
1981-06-25 05:30:00 UTC,2444780.729167,29.7139,-93.4733,0049,-5.80,-3.91,7.0000,236.0000
1981-06-25 06:00:00 UTC,2444780.750000,29.7139,-93.4733,0049,-4.91,-3.44,6.0000,235.0000
1981-06-25 06:30:00 UTC,2444780.770833,29.7139,-93.4733,0049,-6.79,-1.69,7.0000,256.0000
1981-06-25 07:00:00 UTC,2444780.791667,29.7139,-93.4733,0049,-9.40,3.42,10.0000,290.0000
1981-06-25 07:30:00 UTC,2444780.812500,29.7139,-93.4733,0049,-10.06,6.54,12.0000,303.0000
1981-06-25 08:00:00 UTC,2444780.833333,29.7139,-93.4733,0049,-9.46,7.39,12.0000,308.0000
1981-06-25 08:30:00 UTC,2444780.854167,29.7139,-93.4733,0049,-10.72,9.00,14.0000,310.0000
1981-06-25 09:00:00 UTC,2444780.875000,29.7139,-93.4733,0049,-10.97,10.23,15.0000,313.0000
1981-06-25 09:30:00 UTC,2444780.895833,29.7139,-93.4733,0049,-8.87,9.51,13.0000,317.0000
1981-06-25 10:00:00 UTC,2444780.916667,29.7139,-93.4733,0049,-7.55,9.33,12.0000,321.0000
1981-06-25 10:30:00 UTC,2444780.937500,29.7139,-93.4733,0049,-7.39,9.46,12.0000,322.0000
1981-06-25 11:00:00 UTC,2444780.958333,29.7139,-93.4733,0049,-5.99,9.23,11.0000,327.0000
1981-06-25 11:30:00 UTC,2444780.979167,29.7139,-93.4733,0049,-3.52,8.28,9.0000,337.0000
1981-06-25 12:00:00 UTC,2444781.000000,29.7139,-93.4733,0049,-1.53,7.85,8.0000,349.0000
1981-06-25 12:30:00 UTC,2444781.020833,29.7139,-93.4733,0049,-0.61,6.97,7.0000,355.0000
1981-06-25 13:00:00 UTC,2444781.041667,29.7139,-93.4733,0049,-1.79,4.67,5.0000,339.0000
1981-06-25 13:30:00 UTC,2444781.062500,29.7139,-93.4733,0049,-4.39,4.09,6.0000,313.0000
1981-06-25 14:00:00 UTC,2444781.083333,29.7139,-93.4733,0049,-5.73,4.02,7.0000,305.0000
1981-06-25 14:30:00 UTC,2444781.104167,29.7139,-93.4733,0049,-5.44,2.54,6.0000,295.0000
1981-06-25 15:00:00 UTC,2444781.125000,29.7139,-93.4733,0049,-5.87,1.25,6.0000,282.0000
1981-06-25 15:30:00 UTC,2444781.145833,29.7139,-93.4733,0049,-5.97,0.63,6.0000,276.0000
1981-06-25 16:00:00 UTC,2444781.166667,29.7139,-93.4733,0049,-3.94,-0.69,4.0000,260.0000
1981-06-25 16:30:00 UTC,2444781.187500,29.7139,-93.4733,0049,-1.22,-2.74,3.0000,204.0000
1981-06-25 17:00:00 UTC,2444781.208333,29.7139,-93.4733,0049,0.35,-4.99,5.0000,176.0000
1981-06-25 17:30:00 UTC,2444781.229167,29.7139,-93.4733,0049,0.94,-5.93,6.0000,171.0000
1981-06-25 18:00:00 UTC,2444781.250000,29.7139,-93.4733,0049,1.25,-7.90,8.0000,171.0000
1981-06-25 18:30:00 UTC,2444781.270833,29.7139,-93.4733,0049,1.25,-8.91,9.0000,172.0000
1981-06-25 19:00:00 UTC,2444781.291667,29.7139,-93.4733,0049,1.15,-10.94,11.0000,174.0000
1981-06-25 19:30:00 UTC,2444781.312500,29.7139,-93.4733,0049,1.05,-11.95,12.0000,175.0000
1981-06-25 20:00:00 UTC,2444781.333333,29.7139,-93.4733,0049,0.45,-12.99,13.0000,178.0000
1981-06-25 20:30:00 UTC,2444781.354167,29.7139,-93.4733,0049,-1.46,-11.91,12.0000,187.0000
1981-06-25 21:00:00 UTC,2444781.375000,29.7139,-93.4733,0049,-3.76,-10.34,11.0000,200.0000
1981-06-25 21:30:00 UTC,2444781.395833,29.7139,-93.4733,0049,-6.15,-9.12,11.0000,214.0000
1981-06-25 22:00:00 UTC,2444781.416667,29.7139,-93.4733,0049,-9.00,-10.72,14.0000,220.0000
1981-06-25 22:30:00 UTC,2444781.437500,29.7139,-93.4733,0049,-9.55,-10.24,14.0000,223.0000
1981-06-25 23:00:00 UTC,2444781.458333,29.7139,-93.4733,0049,-9.90,-9.90,14.0000,225.0000
1981-06-25 23:30:00 UTC,2444781.479167,29.7139,-93.4733,0049,-12.43,-11.59,17.0000,227.0000
1981-06-26 00:00:00 UTC,2444781.500000,29.7139,-93.4733,0049,-16.99,-12.34,21.0000,234.0000
1981-06-26 00:30:00 UTC,2444781.520833,29.7139,-93.4733,0049,-18.87,-9.21,21.0000,244.0000
1981-06-26 01:00:00 UTC,2444781.541667,29.7139,-93.4733,0049,-18.07,-5.87,19.0000,252.0000
1981-06-26 01:30:00 UTC,2444781.562500,29.7139,-93.4733,0049,-18.58,-3.95,19.0000,258.0000
1981-06-26 02:00:00 UTC,2444781.583333,29.7139,-93.4733,0049,-17.78,-2.82,18.0000,261.0000
1981-06-26 02:30:00 UTC,2444781.604167,29.7139,-93.4733,0049,-16.83,-2.37,17.0000,262.0000
1981-06-26 03:00:00 UTC,2444781.625000,29.7139,-93.4733,0049,-13.92,-1.46,14.0000,264.0000
1981-06-26 03:30:00 UTC,2444781.645833,29.7139,-93.4733,0049,-12.95,-1.13,13.0000,265.0000
1981-06-26 04:00:00 UTC,2444781.666667,29.7139,-93.4733,0049,-11.99,-0.42,12.0000,268.0000
1981-06-26 04:30:00 UTC,2444781.687500,29.7139,-93.4733,0049,-10.94,1.15,11.0000,276.0000
1981-06-26 05:00:00 UTC,2444781.708333,29.7139,-93.4733,0049,-8.56,2.78,9.0000,288.0000
1981-06-26 05:30:00 UTC,2444781.729167,29.7139,-93.4733,0049,-5.80,3.91,7.0000,304.0000
1981-06-26 06:00:00 UTC,2444781.750000,29.7139,-93.4733,0049,-2.54,5.44,6.0000,335.0000
1981-06-26 06:30:00 UTC,2444781.770833,29.7139,-93.4733,0049,0.14,8.00,8.0000,1.0000
1981-06-26 07:00:00 UTC,2444781.791667,29.7139,-93.4733,0049,1.39,7.88,8.0000,10.0000
1981-06-26 07:30:00 UTC,2444781.812500,29.7139,-93.4733,0049,1.53,7.85,8.0000,11.0000
1981-06-26 08:00:00 UTC,2444781.833333,29.7139,-93.4733,0049,1.72,8.83,9.0000,11.0000
1981-06-26 08:30:00 UTC,2444781.854167,29.7139,-93.4733,0049,2.42,9.70,10.0000,14.0000
1981-06-26 09:00:00 UTC,2444781.875000,29.7139,-93.4733,0049,3.22,10.52,11.0000,17.0000
1981-06-26 09:30:00 UTC,2444781.895833,29.7139,-93.4733,0049,3.22,10.52,11.0000,17.0000
1981-06-26 10:00:00 UTC,2444781.916667,29.7139,-93.4733,0049,3.03,10.57,11.0000,16.0000
1981-06-26 10:30:00 UTC,2444781.937500,29.7139,-93.4733,0049,3.22,10.52,11.0000,17.0000
1981-06-26 11:00:00 UTC,2444781.958333,29.7139,-93.4733,0049,4.38,8.99,10.0000,26.0000
1981-06-26 11:30:00 UTC,2444781.979167,29.7139,-93.4733,0049,5.03,7.46,9.0000,34.0000
1981-06-26 12:00:00 UTC,2444782.000000,29.7139,-93.4733,0049,3.29,6.18,7.0000,28.0000
1981-06-26 12:30:00 UTC,2444782.020833,29.7139,-93.4733,0049,3.29,6.18,7.0000,28.0000
1981-06-26 13:00:00 UTC,2444782.041667,29.7139,-93.4733,0049,4.32,4.17,6.0000,46.0000
1981-06-26 13:30:00 UTC,2444782.062500,29.7139,-93.4733,0049,4.33,2.50,5.0000,60.0000
1981-06-26 14:00:00 UTC,2444782.083333,29.7139,-93.4733,0049,3.54,3.54,5.0000,45.0000
1981-06-26 14:30:00 UTC,2444782.104167,29.7139,-93.4733,0049,2.11,4.53,5.0000,25.0000
1981-06-26 15:00:00 UTC,2444782.125000,29.7139,-93.4733,0049,1.87,4.64,5.0000,22.0000
1981-06-26 15:30:00 UTC,2444782.145833,29.7139,-93.4733,0049,1.36,2.67,3.0000,27.0000
1981-06-26 16:00:00 UTC,2444782.166667,29.7139,-93.4733,0049,0.37,0.93,1.0000,22.0000
1981-06-26 16:30:00 UTC,2444782.187500,29.7139,-93.4733,0049,1.64,-1.15,2.0000,125.0000
1981-06-26 17:00:00 UTC,2444782.208333,29.7139,-93.4733,0049,4.73,-3.69,6.0000,128.0000
1981-06-26 17:30:00 UTC,2444782.229167,29.7139,-93.4733,0049,6.13,-5.14,8.0000,130.0000
1981-06-26 18:00:00 UTC,2444782.250000,29.7139,-93.4733,0049,5.35,-5.95,8.0000,138.0000
1981-06-26 18:30:00 UTC,2444782.270833,29.7139,-93.4733,0049,4.70,-6.47,8.0000,144.0000
1981-06-26 19:00:00 UTC,2444782.291667,29.7139,-93.4733,0049,3.80,-8.16,9.0000,155.0000
1981-06-26 19:30:00 UTC,2444782.312500,29.7139,-93.4733,0049,2.59,-9.66,10.0000,165.0000
1981-06-26 20:00:00 UTC,2444782.333333,29.7139,-93.4733,0049,2.10,-10.80,11.0000,169.0000
1981-06-26 20:30:00 UTC,2444782.354167,29.7139,-93.4733,0049,-0.23,-13.00,13.0000,181.0000
1981-06-26 21:00:00 UTC,2444782.375000,29.7139,-93.4733,0049,-1.05,-14.96,15.0000,184.0000
1981-06-26 21:30:00 UTC,2444782.395833,29.7139,-93.4733,0049,0.84,-15.98,16.0000,177.0000
1981-06-26 22:00:00 UTC,2444782.416667,29.7139,-93.4733,0049,0.98,-13.97,14.0000,176.0000
1981-06-26 22:30:00 UTC,2444782.437500,29.7139,-93.4733,0049,-1.25,-11.93,12.0000,186.0000
1981-06-26 23:00:00 UTC,2444782.458333,29.7139,-93.4733,0049,-5.08,-11.97,13.0000,203.0000
1981-06-26 23:30:00 UTC,2444782.479167,29.7139,-93.4733,0049,-8.17,-12.58,15.0000,213.0000
1981-06-27 00:00:00 UTC,2444782.500000,29.7139,-93.4733,0049,-7.62,-11.74,14.0000,213.0000
1981-06-27 00:30:00 UTC,2444782.520833,29.7139,-93.4733,0049,-7.00,-12.12,14.0000,210.0000
1981-06-27 01:00:00 UTC,2444782.541667,29.7139,-93.4733,0049,-8.76,-14.57,17.0000,211.0000
1981-06-27 01:30:00 UTC,2444782.562500,29.7139,-93.4733,0049,-7.95,-12.72,15.0000,212.0000
1981-06-27 02:00:00 UTC,2444782.583333,29.7139,-93.4733,0049,-6.50,-11.26,13.0000,210.0000
1981-06-27 02:30:00 UTC,2444782.604167,29.7139,-93.4733,0049,-4.69,-11.05,12.0000,203.0000
1981-06-27 03:00:00 UTC,2444782.625000,29.7139,-93.4733,0049,-3.40,-10.46,11.0000,198.0000
1981-06-27 03:30:00 UTC,2444782.645833,29.7139,-93.4733,0049,-6.10,-11.48,13.0000,208.0000
1981-06-27 04:00:00 UTC,2444782.666667,29.7139,-93.4733,0049,-9.44,-11.66,15.0000,219.0000
1981-06-27 04:30:00 UTC,2444782.687500,29.7139,-93.4733,0049,-9.73,-10.07,14.0000,224.0000
1981-06-27 05:00:00 UTC,2444782.708333,29.7139,-93.4733,0049,-9.66,-8.70,13.0000,228.0000
1981-06-27 05:30:00 UTC,2444782.729167,29.7139,-93.4733,0049,-11.26,-6.50,13.0000,240.0000
1981-06-27 06:00:00 UTC,2444782.750000,29.7139,-93.4733,0049,-11.64,-2.90,12.0000,256.0000
1981-06-27 06:30:00 UTC,2444782.770833,29.7139,-93.4733,0049,-9.99,0.52,10.0000,273.0000
1981-06-27 07:00:00 UTC,2444782.791667,29.7139,-93.4733,0049,-6.12,3.39,7.0000,299.0000
1981-06-27 07:30:00 UTC,2444782.812500,29.7139,-93.4733,0049,-2.44,5.48,6.0000,336.0000
1981-06-27 08:00:00 UTC,2444782.833333,29.7139,-93.4733,0049,0.28,3.99,4.0000,4.0000
1981-06-27 08:30:00 UTC,2444782.854167,29.7139,-93.4733,0049,1.97,2.26,3.0000,41.0000
1981-06-27 09:00:00 UTC,2444782.875000,29.7139,-93.4733,0049,2.93,-0.62,3.0000,102.0000
1981-06-27 09:30:00 UTC,2444782.895833,29.7139,-93.4733,0049,2.41,-3.19,4.0000,143.0000
1981-06-27 10:00:00 UTC,2444782.916667,29.7139,-93.4733,0049,-0.07,-4.00,4.0000,181.0000
1981-06-27 10:30:00 UTC,2444782.937500,29.7139,-93.4733,0049,-3.47,-3.60,5.0000,224.0000
1981-06-27 11:00:00 UTC,2444782.958333,29.7139,-93.4733,0049,-8.98,-0.63,9.0000,266.0000
1981-06-27 11:30:00 UTC,2444782.979167,29.7139,-93.4733,0049,-15.28,7.45,17.0000,296.0000
1981-06-27 12:00:00 UTC,2444783.000000,29.7139,-93.4733,0049,-16.09,13.50,21.0000,310.0000
1981-06-27 12:30:00 UTC,2444783.020833,29.7139,-93.4733,0049,-11.70,10.91,16.0000,313.0000
1981-06-27 13:00:00 UTC,2444783.041667,29.7139,-93.4733,0049,-8.67,6.77,11.0000,308.0000
1981-06-27 13:30:00 UTC,2444783.062500,29.7139,-93.4733,0049,-7.46,5.03,9.0000,304.0000
1981-06-27 14:00:00 UTC,2444783.083333,29.7139,-93.4733,0049,-7.46,5.03,9.0000,304.0000
1981-06-27 14:30:00 UTC,2444783.104167,29.7139,-93.4733,0049,-6.93,4.00,8.0000,300.0000
1981-06-27 15:00:00 UTC,2444783.125000,29.7139,-93.4733,0049,-8.22,3.66,9.0000,294.0000
1981-06-27 15:30:00 UTC,2444783.145833,29.7139,-93.4733,0049,-9.80,4.99,11.0000,297.0000
1981-06-27 16:00:00 UTC,2444783.166667,29.7139,-93.4733,0049,-9.62,5.33,11.0000,299.0000
1981-06-27 16:30:00 UTC,2444783.187500,29.7139,-93.4733,0049,-7.42,3.00,8.0000,292.0000
1981-06-27 17:00:00 UTC,2444783.208333,29.7139,-93.4733,0049,-4.00,0.07,4.0000,271.0000
1981-06-27 17:30:00 UTC,2444783.229167,29.7139,-93.4733,0049,-2.43,-1.76,3.0000,234.0000
1981-06-27 18:00:00 UTC,2444783.250000,29.7139,-93.4733,0049,-2.88,-2.78,4.0000,226.0000
1981-06-27 18:30:00 UTC,2444783.270833,29.7139,-93.4733,0049,-2.33,-1.89,3.0000,231.0000
1981-06-27 19:00:00 UTC,2444783.291667,29.7139,-93.4733,0049,-1.44,-1.39,2.0000,226.0000
1981-06-27 19:30:00 UTC,2444783.312500,29.7139,-93.4733,0049,0.82,-0.57,1.0000,125.0000
1981-06-27 20:00:00 UTC,2444783.333333,29.7139,-93.4733,0049,4.00,0.14,4.0000,88.0000
1981-06-27 20:30:00 UTC,2444783.354167,29.7139,-93.4733,0049,5.99,0.31,6.0000,87.0000
1981-06-27 21:00:00 UTC,2444783.375000,29.7139,-93.4733,0049,6.97,-0.61,7.0000,95.0000
1981-06-27 21:30:00 UTC,2444783.395833,29.7139,-93.4733,0049,7.90,-1.25,8.0000,99.0000
1981-06-27 22:00:00 UTC,2444783.416667,29.7139,-93.4733,0049,7.92,-1.11,8.0000,98.0000
1981-06-27 22:30:00 UTC,2444783.437500,29.7139,-93.4733,0049,8.93,-1.10,9.0000,97.0000
1981-06-27 23:00:00 UTC,2444783.458333,29.7139,-93.4733,0049,10.63,-2.85,11.0000,105.0000
1981-06-27 23:30:00 UTC,2444783.479167,29.7139,-93.4733,0049,10.05,-4.47,11.0000,114.0000
1981-06-28 00:00:00 UTC,2444783.500000,29.7139,-93.4733,0049,6.93,-4.00,8.0000,120.0000
1981-06-28 00:30:00 UTC,2444783.520833,29.7139,-93.4733,0049,3.60,-3.47,5.0000,134.0000
1981-06-28 01:00:00 UTC,2444783.541667,29.7139,-93.4733,0049,-0.10,-3.00,3.0000,182.0000
1981-06-28 01:30:00 UTC,2444783.562500,29.7139,-93.4733,0049,-7.76,-1.94,8.0000,256.0000
1981-06-28 02:00:00 UTC,2444783.583333,29.7139,-93.4733,0049,-14.00,0.24,14.0000,271.0000
1981-06-28 02:30:00 UTC,2444783.604167,29.7139,-93.4733,0049,-15.91,1.67,16.0000,276.0000
1981-06-28 03:00:00 UTC,2444783.625000,29.7139,-93.4733,0049,-14.85,2.09,15.0000,278.0000
1981-06-28 03:30:00 UTC,2444783.645833,29.7139,-93.4733,0049,-13.64,3.15,14.0000,283.0000
1981-06-28 04:00:00 UTC,2444783.666667,29.7139,-93.4733,0049,-12.22,4.45,13.0000,290.0000
1981-06-28 04:30:00 UTC,2444783.687500,29.7139,-93.4733,0049,-11.05,4.69,12.0000,293.0000
1981-06-28 05:00:00 UTC,2444783.708333,29.7139,-93.4733,0049,-10.13,4.30,11.0000,293.0000
1981-06-28 05:30:00 UTC,2444783.729167,29.7139,-93.4733,0049,-8.34,3.37,9.0000,292.0000
1981-06-28 06:00:00 UTC,2444783.750000,29.7139,-93.4733,0049,-7.56,2.60,8.0000,289.0000
1981-06-28 06:30:00 UTC,2444783.770833,29.7139,-93.4733,0049,-7.61,2.47,8.0000,288.0000
1981-06-28 07:00:00 UTC,2444783.791667,29.7139,-93.4733,0049,-6.76,1.81,7.0000,285.0000
1981-06-28 07:30:00 UTC,2444783.812500,29.7139,-93.4733,0049,-3.94,0.69,4.0000,280.0000
1981-06-28 08:00:00 UTC,2444783.833333,29.7139,-93.4733,0049,-0.99,0.16,1.0000,279.0000
1981-06-28 08:30:00 UTC,2444783.854167,29.7139,-93.4733,0049,0.85,-1.81,2.0000,155.0000
1981-06-28 09:00:00 UTC,2444783.875000,29.7139,-93.4733,0049,1.56,-3.68,4.0000,157.0000
1981-06-28 09:30:00 UTC,2444783.895833,29.7139,-93.4733,0049,0.70,-4.95,5.0000,172.0000
1981-06-28 10:00:00 UTC,2444783.916667,29.7139,-93.4733,0049,0.78,-2.90,3.0000,165.0000
1981-06-28 10:30:00 UTC,2444783.937500,29.7139,-93.4733,0049,2.54,-1.59,3.0000,122.0000
1981-06-28 11:00:00 UTC,2444783.958333,29.7139,-93.4733,0049,2.84,-0.98,3.0000,109.0000
1981-06-28 11:30:00 UTC,2444783.979167,29.7139,-93.4733,0049,3.65,-1.63,4.0000,114.0000
1981-06-28 12:00:00 UTC,2444784.000000,29.7139,-93.4733,0049,4.37,-2.42,5.0000,119.0000
1981-06-28 12:30:00 UTC,2444784.020833,29.7139,-93.4733,0049,3.60,-1.75,4.0000,116.0000
1981-06-28 13:00:00 UTC,2444784.041667,29.7139,-93.4733,0049,3.91,-0.83,4.0000,102.0000
1981-06-28 13:30:00 UTC,2444784.062500,29.7139,-93.4733,0049,4.00,0.07,4.0000,89.0000
1981-06-28 14:00:00 UTC,2444784.083333,29.7139,-93.4733,0049,2.76,1.17,3.0000,67.0000
1981-06-28 14:30:00 UTC,2444784.104167,29.7139,-93.4733,0049,2.08,2.16,3.0000,44.0000
1981-06-28 15:00:00 UTC,2444784.125000,29.7139,-93.4733,0049,2.97,2.68,4.0000,48.0000
1981-06-28 15:30:00 UTC,2444784.145833,29.7139,-93.4733,0049,5.39,2.63,6.0000,64.0000
1981-06-28 16:00:00 UTC,2444784.166667,29.7139,-93.4733,0049,5.96,0.73,6.0000,83.0000
1981-06-28 16:30:00 UTC,2444784.187500,29.7139,-93.4733,0049,3.71,-1.50,4.0000,112.0000
1981-06-28 17:00:00 UTC,2444784.208333,29.7139,-93.4733,0049,1.76,-2.43,3.0000,144.0000
1981-06-28 17:30:00 UTC,2444784.229167,29.7139,-93.4733,0049,1.18,-1.62,2.0000,144.0000
1981-06-28 18:00:00 UTC,2444784.250000,29.7139,-93.4733,0049,3.11,-2.52,4.0000,129.0000
1981-06-28 18:30:00 UTC,2444784.270833,29.7139,-93.4733,0049,4.46,-4.01,6.0000,132.0000
1981-06-28 19:00:00 UTC,2444784.291667,29.7139,-93.4733,0049,5.14,-6.13,8.0000,140.0000
1981-06-28 19:30:00 UTC,2444784.312500,29.7139,-93.4733,0049,4.85,-8.75,10.0000,151.0000
1981-06-28 20:00:00 UTC,2444784.333333,29.7139,-93.4733,0049,3.58,-9.34,10.0000,159.0000
1981-06-28 20:30:00 UTC,2444784.354167,29.7139,-93.4733,0049,3.26,-9.46,10.0000,161.0000
1981-06-28 21:00:00 UTC,2444784.375000,29.7139,-93.4733,0049,3.23,-8.40,9.0000,159.0000
1981-06-28 21:30:00 UTC,2444784.395833,29.7139,-93.4733,0049,2.62,-6.49,7.0000,158.0000
1981-06-28 22:00:00 UTC,2444784.416667,29.7139,-93.4733,0049,1.81,-6.76,7.0000,165.0000
1981-06-28 22:30:00 UTC,2444784.437500,29.7139,-93.4733,0049,0.85,-6.95,7.0000,173.0000
1981-06-28 23:00:00 UTC,2444784.458333,29.7139,-93.4733,0049,-0.21,-6.00,6.0000,182.0000
1981-06-28 23:30:00 UTC,2444784.479167,29.7139,-93.4733,0049,-1.57,-6.82,7.0000,193.0000
1981-06-29 00:00:00 UTC,2444784.500000,29.7139,-93.4733,0049,-2.62,-6.49,7.0000,202.0000
1981-06-29 00:30:00 UTC,2444784.520833,29.7139,-93.4733,0049,-5.04,-4.86,7.0000,226.0000
1981-06-29 01:00:00 UTC,2444784.541667,29.7139,-93.4733,0049,-8.65,2.48,9.0000,286.0000
1981-06-29 01:30:00 UTC,2444784.562500,29.7139,-93.4733,0049,-10.50,12.08,16.0000,319.0000
1981-06-29 02:00:00 UTC,2444784.583333,29.7139,-93.4733,0049,-9.00,15.59,18.0000,330.0000
1981-06-29 02:30:00 UTC,2444784.604167,29.7139,-93.4733,0049,-6.14,12.58,14.0000,334.0000
1981-06-29 03:00:00 UTC,2444784.625000,29.7139,-93.4733,0049,-4.47,10.05,11.0000,336.0000
1981-06-29 03:30:00 UTC,2444784.645833,29.7139,-93.4733,0049,-3.00,7.42,8.0000,338.0000
1981-06-29 04:00:00 UTC,2444784.666667,29.7139,-93.4733,0049,-2.28,6.62,7.0000,341.0000
1981-06-29 04:30:00 UTC,2444784.687500,29.7139,-93.4733,0049,-2.05,5.64,6.0000,340.0000
1981-06-29 05:00:00 UTC,2444784.708333,29.7139,-93.4733,0049,-1.94,3.50,4.0000,331.0000
1981-06-29 05:30:00 UTC,2444784.729167,29.7139,-93.4733,0049,-2.57,1.55,3.0000,301.0000
1981-06-29 06:00:00 UTC,2444784.750000,29.7139,-93.4733,0049,-3.00,0.16,3.0000,273.0000
1981-06-29 06:30:00 UTC,2444784.770833,29.7139,-93.4733,0049,-2.74,-1.22,3.0000,246.0000
1981-06-29 07:00:00 UTC,2444784.791667,29.7139,-93.4733,0049,-0.49,-3.97,4.0000,187.0000
1981-06-29 07:30:00 UTC,2444784.812500,29.7139,-93.4733,0049,1.66,-7.83,8.0000,168.0000
1981-06-29 08:00:00 UTC,2444784.833333,29.7139,-93.4733,0049,1.91,-9.82,10.0000,169.0000
1981-06-29 08:30:00 UTC,2444784.854167,29.7139,-93.4733,0049,0.00,-11.00,11.0000,180.0000
1981-06-29 09:00:00 UTC,2444784.875000,29.7139,-93.4733,0049,-2.47,-10.72,11.0000,193.0000
1981-06-29 09:30:00 UTC,2444784.895833,29.7139,-93.4733,0049,-3.71,-11.41,12.0000,198.0000
1981-06-29 10:00:00 UTC,2444784.916667,29.7139,-93.4733,0049,-4.23,-12.29,13.0000,199.0000
1981-06-29 10:30:00 UTC,2444784.937500,29.7139,-93.4733,0049,-4.50,-11.13,12.0000,202.0000
1981-06-29 11:00:00 UTC,2444784.958333,29.7139,-93.4733,0049,-6.31,-9.01,11.0000,215.0000
1981-06-29 11:30:00 UTC,2444784.979167,29.7139,-93.4733,0049,-7.43,-6.69,10.0000,228.0000
1981-06-29 12:00:00 UTC,2444785.000000,29.7139,-93.4733,0049,-5.59,-4.21,7.0000,233.0000
1981-06-29 12:30:00 UTC,2444785.020833,29.7139,-93.4733,0049,-4.73,-3.69,6.0000,232.0000
1981-06-29 13:00:00 UTC,2444785.041667,29.7139,-93.4733,0049,-5.20,-4.68,7.0000,228.0000
1981-06-29 13:30:00 UTC,2444785.062500,29.7139,-93.4733,0049,-6.78,-4.24,8.0000,238.0000
1981-06-29 14:00:00 UTC,2444785.083333,29.7139,-93.4733,0049,-6.97,-0.61,7.0000,265.0000
1981-06-29 14:30:00 UTC,2444785.104167,29.7139,-93.4733,0049,-5.52,2.34,6.0000,293.0000
1981-06-29 15:00:00 UTC,2444785.125000,29.7139,-93.4733,0049,-4.24,2.65,5.0000,302.0000
1981-06-29 15:30:00 UTC,2444785.145833,29.7139,-93.4733,0049,-4.97,3.36,6.0000,304.0000
1981-06-29 16:00:00 UTC,2444785.166667,29.7139,-93.4733,0049,-3.94,4.53,6.0000,319.0000
1981-06-29 16:30:00 UTC,2444785.187500,29.7139,-93.4733,0049,-1.95,4.60,5.0000,337.0000
1981-06-29 17:00:00 UTC,2444785.208333,29.7139,-93.4733,0049,-0.78,2.90,3.0000,345.0000
1981-06-29 17:30:00 UTC,2444785.229167,29.7139,-93.4733,0049,-0.81,1.83,2.0000,336.0000
1981-06-29 18:00:00 UTC,2444785.250000,29.7139,-93.4733,0049,-0.75,1.85,2.0000,338.0000
1981-06-29 18:30:00 UTC,2444785.270833,29.7139,-93.4733,0049,0.98,-0.19,1.0000,101.0000
1981-06-29 19:00:00 UTC,2444785.291667,29.7139,-93.4733,0049,1.55,-1.26,2.0000,129.0000
1981-06-29 19:30:00 UTC,2444785.312500,29.7139,-93.4733,0049,2.62,-1.45,3.0000,119.0000
1981-06-29 20:00:00 UTC,2444785.333333,29.7139,-93.4733,0049,4.33,-2.50,5.0000,120.0000
1981-06-29 20:30:00 UTC,2444785.354167,29.7139,-93.4733,0049,7.28,-5.29,9.0000,126.0000
1981-06-29 21:00:00 UTC,2444785.375000,29.7139,-93.4733,0049,7.31,-6.82,10.0000,133.0000
1981-06-29 21:30:00 UTC,2444785.395833,29.7139,-93.4733,0049,4.90,-7.55,9.0000,147.0000
1981-06-29 22:00:00 UTC,2444785.416667,29.7139,-93.4733,0049,3.08,-8.46,9.0000,160.0000
1981-06-29 22:30:00 UTC,2444785.437500,29.7139,-93.4733,0049,-2.08,-9.78,10.0000,192.0000
1981-06-29 23:00:00 UTC,2444785.458333,29.7139,-93.4733,0049,-12.43,-10.07,16.0000,231.0000
1981-06-29 23:30:00 UTC,2444785.479167,29.7139,-93.4733,0049,-22.55,-8.21,24.0000,250.0000
1981-06-30 00:00:00 UTC,2444785.500000,29.7139,-93.4733,0049,-28.56,-5.04,29.0000,260.0000
1981-06-30 00:30:00 UTC,2444785.520833,29.7139,-93.4733,0049,-32.99,-0.58,33.0000,269.0000
1981-06-30 01:00:00 UTC,2444785.541667,29.7139,-93.4733,0049,-34.57,5.48,35.0000,279.0000
1981-06-30 01:30:00 UTC,2444785.562500,29.7139,-93.4733,0049,-34.61,9.92,36.0000,286.0000
1981-06-30 02:00:00 UTC,2444785.583333,29.7139,-93.4733,0049,-34.43,10.53,36.0000,287.0000
1981-06-30 02:30:00 UTC,2444785.604167,29.7139,-93.4733,0049,-34.43,10.53,36.0000,287.0000
1981-06-30 03:00:00 UTC,2444785.625000,29.7139,-93.4733,0049,-32.89,11.97,35.0000,290.0000